Time,TemperatureF,DewpointF,PressureIn,WindDirection,WindDirectionDegrees,WindSpeedMPH,WindSpeedGustMPH,Humidity,HourlyPrecipIn,Conditions,Clouds,dailyrainin,SoftwareType,DateUTC
2013-01-31 08:20:00,26.1,17.3,29.93,WSW,255,3.0,3.0,69,0.00,,,0.00,Wunderground v.1.15,2013-01-31 13:20:00,
2013-01-31 08:30:00,26.3,17.8,29.94,WSW,250,2.0,2.0,70,0.00,,,0.00,Wunderground v.1.15,2013-01-31 13:30:00,
2013-01-31 08:40:00,26.4,17.9,29.94,SW,234,2.0,2.0,70,0.00,,,0.00,Wunderground v.1.15,2013-01-31 13:40:00,
2013-01-31 08:50:00,26.4,17.6,29.94,SSW,208,4.0,6.0,69,0.00,,,0.00,Wunderground v.1.15,2013-01-31 13:50:00,
2013-01-31 09:00:00,26.5,18.7,29.95,West,273,4.0,4.0,72,0.00,,,0.00,Wunderground v.1.15,2013-01-31 14:00:00,
2013-01-31 09:10:00,26.6,18.8,29.95,SSW,212,3.0,3.0,72,0.00,,,0.00,Wunderground v.1.15,2013-01-31 14:10:00,
2013-01-31 09:20:00,26.7,18.9,29.96,SSW,196,3.0,3.0,72,0.00,,,0.00,Wunderground v.1.15,2013-01-31 14:20:00,
2013-01-31 09:30:00,27.0,19.5,29.96,WSW,238,3.0,7.0,73,0.00,,,0.00,Wunderground v.1.15,2013-01-31 14:30:00,
2013-01-31 09:40:00,27.2,19.7,29.96,SW,218,4.0,8.0,73,0.00,,,0.00,Wunderground v.1.15,2013-01-31 14:40:00,
2013-01-31 09:50:00,27.5,20.0,29.96,WSW,238,3.0,3.0,73,0.00,,,0.00,Wunderground v.1.15,2013-01-31 14:50:00,
2013-01-31 10:00:00,27.8,20.3,29.97,West,263,4.0,4.0,73,0.00,,,0.00,Wunderground v.1.15,2013-01-31 15:00:00,
2013-01-31 10:10:00,27.8,20.3,29.97,West,277,4.0,5.0,73,0.00,,,0.00,Wunderground v.1.15,2013-01-31 15:10:00,
2013-01-31 10:20:00,27.8,20.6,29.97,SW,223,4.0,4.0,74,0.00,,,0.00,Wunderground v.1.15,2013-01-31 15:20:00,
2013-01-31 10:29:00,28.0,20.1,29.97,WSW,238,5.0,5.0,72,0.00,,,0.00,Wunderground v.1.15,2013-01-31 15:29:00,
2013-01-31 10:40:00,28.5,20.3,29.98,SSW,203,3.0,3.0,71,0.00,,,0.00,Wunderground v.1.15,2013-01-31 15:40:00,
2013-01-31 10:50:00,28.7,20.1,29.98,WSW,240,3.0,6.0,70,0.00,,,0.00,Wunderground v.1.15,2013-01-31 15:50:00,
2013-01-31 11:00:00,28.5,21.3,29.99,NW,317,4.0,4.0,74,0.00,,,0.00,Wunderground v.1.15,2013-01-31 16:00:00,
2013-01-31 11:09:00,28.4,21.5,29.99,WNW,295,4.0,4.0,75,0.00,,,0.00,Wunderground v.1.15,2013-01-31 16:09:00,
2013-01-31 11:20:00,28.6,22.0,29.99,WSW,258,2.0,2.0,76,0.00,,,0.00,Wunderground v.1.15,2013-01-31 16:20:00,
2013-01-31 11:30:00,28.5,22.5,29.99,SSW,200,4.0,4.0,78,0.00,,,0.00,Wunderground v.1.15,2013-01-31 16:30:00,
2013-01-31 11:40:00,28.7,21.5,29.99,SSW,200,3.0,6.0,74,0.00,,,0.00,Wunderground v.1.15,2013-01-31 16:40:00,
2013-01-31 11:49:00,29.1,19.8,29.99,SSW,213,5.0,5.0,68,0.00,,,0.00,Wunderground v.1.15,2013-01-31 16:49:00,
2013-01-31 12:00:00,29.8,20.2,29.99,WSW,239,4.0,4.0,67,0.00,,,0.00,Wunderground v.1.15,2013-01-31 17:00:00,
2013-01-31 12:10:00,30.3,21.3,29.99,ENE,57,3.0,3.0,69,0.00,,,0.00,Wunderground v.1.15,2013-01-31 17:10:00,
2013-01-31 12:20:00,31.0,21.7,29.99,WNW,292,4.0,7.0,68,0.00,,,0.00,Wunderground v.1.15,2013-01-31 17:20:00,
2013-01-31 12:30:00,30.5,22.2,29.99,SW,225,4.0,9.0,71,0.00,,,0.00,Wunderground v.1.15,2013-01-31 17:30:00,
2013-01-31 12:40:00,30.9,21.2,29.99,SSW,212,6.0,7.0,67,0.00,,,0.00,Wunderground v.1.15,2013-01-31 17:40:00,
2013-01-31 12:50:00,30.9,20.9,29.98,West,259,4.0,6.0,66,0.00,,,0.00,Wunderground v.1.15,2013-01-31 17:50:00,
2013-01-31 13:00:00,31.2,21.2,29.98,South,173,3.0,4.0,66,0.00,,,0.00,Wunderground v.1.15,2013-01-31 18:00:00,
2013-01-31 13:10:00,31.3,20.2,29.98,NW,313,5.0,7.0,63,0.00,,,0.00,Wunderground v.1.15,2013-01-31 18:10:00,
2013-01-31 13:20:00,31.2,19.7,29.98,WSW,250,5.0,5.0,62,0.00,,,0.00,Wunderground v.1.15,2013-01-31 18:20:00,
2013-01-31 13:30:00,31.7,20.9,29.97,NE,36,4.0,4.0,64,0.00,,,0.00,Wunderground v.1.15,2013-01-31 18:30:00,
2013-01-31 13:40:00,31.7,21.3,29.97,West,275,5.0,5.0,65,0.00,,,0.00,Wunderground v.1.15,2013-01-31 18:40:00,
2013-01-31 13:50:00,31.9,20.7,29.97,West,278,4.0,7.0,63,0.00,,,0.00,Wunderground v.1.15,2013-01-31 18:50:00,
2013-01-31 14:00:00,31.8,20.3,29.97,WNW,287,5.0,7.0,62,0.00,,,0.00,Wunderground v.1.15,2013-01-31 19:00:00,
2013-01-31 14:10:00,32.4,21.2,29.96,South,189,4.0,12.0,63,0.00,,,0.00,Wunderground v.1.15,2013-01-31 19:10:00,
2013-01-31 14:20:00,32.2,20.6,29.97,WNW,298,5.0,5.0,62,0.00,,,0.00,Wunderground v.1.15,2013-01-31 19:20:00,
2013-01-31 14:30:00,32.8,20.4,29.96,SW,227,4.0,5.0,60,0.00,,,0.00,Wunderground v.1.15,2013-01-31 19:30:00,
2013-01-31 14:40:00,32.3,20.0,29.96,West,266,5.0,5.0,60,0.00,,,0.00,Wunderground v.1.15,2013-01-31 19:40:00,
2013-01-31 14:50:00,32.6,20.6,29.96,WSW,251,4.0,4.0,61,0.00,,,0.00,Wunderground v.1.15,2013-01-31 19:50:00,
2013-01-31 15:00:00,32.9,21.7,29.95,NW,317,3.0,3.0,63,0.00,,,0.00,Wunderground v.1.15,2013-01-31 20:00:00,
2013-01-31 15:10:00,33.7,21.7,29.95,WSW,238,3.0,7.0,61,0.00,,,0.00,Wunderground v.1.15,2013-01-31 20:10:00,
2013-01-31 15:20:00,33.0,21.0,29.96,SSW,213,5.0,6.0,61,0.00,,,0.00,Wunderground v.1.15,2013-01-31 20:20:00,
2013-01-31 15:30:00,32.0,21.9,29.96,SW,219,5.0,5.0,66,0.00,,,0.00,Wunderground v.1.15,2013-01-31 20:30:00,
2013-01-31 15:40:00,32.0,22.3,29.96,West,259,3.0,3.0,67,0.00,,,0.00,Wunderground v.1.15,2013-01-31 20:40:00,
2013-01-31 15:50:00,32.1,21.3,29.96,SW,219,4.0,6.0,64,0.00,,,0.00,Wunderground v.1.15,2013-01-31 20:50:00,
2013-01-31 16:00:00,32.9,20.9,29.95,NW,310,4.0,4.0,61,0.00,,,0.00,Wunderground v.1.15,2013-01-31 21:00:00,
2013-01-31 16:10:00,32.8,20.0,29.95,NW,319,4.0,4.0,59,0.00,,,0.00,Wunderground v.1.15,2013-01-31 21:10:00,
2013-01-31 16:20:00,32.7,19.9,29.95,SW,232,3.0,3.0,59,0.00,,,0.00,Wunderground v.1.15,2013-01-31 21:20:00,
2013-01-31 16:30:00,32.4,21.6,29.95,NNW,346,3.0,5.0,64,0.00,,,0.00,Wunderground v.1.15,2013-01-31 21:30:00,
2013-01-31 16:40:00,32.1,21.3,29.96,WNW,282,4.0,4.0,64,0.00,,,0.00,Wunderground v.1.15,2013-01-31 21:40:00,
2013-01-31 16:50:00,31.8,21.7,29.96,WSW,253,5.0,5.0,66,0.00,,,0.00,Wunderground v.1.15,2013-01-31 21:50:00,
2013-01-31 17:00:00,31.3,22.3,29.96,SW,225,5.0,5.0,69,0.00,,,0.00,Wunderground v.1.15,2013-01-31 22:00:00,
2013-01-31 17:10:00,31.0,23.7,29.96,West,272,6.0,6.0,74,0.00,,,0.00,Wunderground v.1.15,2013-01-31 22:10:00,
2013-01-31 17:20:00,30.7,24.0,29.97,NW,316,4.0,4.0,76,0.00,,,0.00,Wunderground v.1.15,2013-01-31 22:20:00,
2013-01-31 17:30:00,31.1,24.1,29.97,WSW,248,4.0,4.0,75,0.00,,,0.00,Wunderground v.1.15,2013-01-31 22:30:00,
2013-01-31 17:40:00,31.3,24.0,29.96,WNW,292,3.0,11.0,74,0.00,,,0.00,Wunderground v.1.15,2013-01-31 22:40:00,
2013-01-31 17:50:00,31.0,24.3,29.97,North,355,4.0,7.0,76,0.00,,,0.00,Wunderground v.1.15,2013-01-31 22:50:00,
2013-01-31 18:00:00,30.6,24.9,29.97,West,273,3.0,3.0,79,0.00,,,0.00,Wunderground v.1.15,2013-01-31 23:00:00,
2013-01-31 18:10:00,30.1,25.3,29.97,WNW,288,3.0,10.0,82,0.00,,,0.00,Wunderground v.1.15,2013-01-31 23:10:00,
2013-01-31 18:20:00,29.6,25.9,29.98,NNW,331,3.0,3.0,86,0.00,,,0.00,Wunderground v.1.15,2013-01-31 23:20:00,
2013-01-31 18:30:00,29.3,26.2,29.97,NNW,346,2.0,2.0,88,0.00,,,0.00,Wunderground v.1.15,2013-01-31 23:30:00,
2013-01-31 18:40:00,29.1,26.3,29.97,West,277,2.0,2.0,89,0.00,,,0.00,Wunderground v.1.15,2013-01-31 23:40:00,
2013-01-31 18:50:00,29.0,26.2,29.98,WSW,256,2.0,2.0,89,0.00,,,0.00,Wunderground v.1.15,2013-01-31 23:50:00,
2013-01-31 19:00:00,28.9,26.3,29.98,West,279,2.0,2.0,90,0.00,,,0.00,Wunderground v.1.15,2013-02-01 00:00:00,
2013-01-31 19:10:00,28.7,26.4,29.98,North,355,2.0,4.0,91,0.00,,,0.00,Wunderground v.1.15,2013-02-01 00:10:00,
2013-01-31 19:20:00,27.9,25.6,29.99,NW,306,4.0,5.0,91,0.00,,,0.01,Wunderground v.1.15,2013-02-01 00:20:00,
2013-01-31 19:30:00,26.7,24.2,30.01,NNW,346,5.0,6.0,90,0.00,,,0.01,Wunderground v.1.15,2013-02-01 00:30:00,
2013-01-31 19:40:00,25.9,23.6,30.01,NNW,346,4.0,4.0,91,0.00,,,0.02,Wunderground v.1.15,2013-02-01 00:40:00,
2013-01-31 19:50:00,25.1,22.6,30.02,NNW,330,5.0,6.0,90,0.00,,,0.02,Wunderground v.1.15,2013-02-01 00:50:00,
2013-01-31 20:00:00,24.5,21.5,30.03,WNW,296,6.0,6.0,88,0.00,,,0.02,Wunderground v.1.15,2013-02-01 01:00:00,
2013-01-31 20:10:00,24.1,20.5,30.05,North,360,4.0,6.0,86,0.00,,,0.02,Wunderground v.1.15,2013-02-01 01:10:00,
2013-01-31 20:20:00,23.6,19.8,30.05,NW,323,5.0,5.0,85,0.00,,,0.02,Wunderground v.1.15,2013-02-01 01:20:00,
2013-01-31 20:30:00,22.8,19.2,30.06,West,273,5.0,5.0,86,0.00,,,0.02,Wunderground v.1.15,2013-02-01 01:30:00,
2013-01-31 20:40:00,22.1,18.6,30.07,North,355,4.0,4.0,86,0.00,,,0.02,Wunderground v.1.15,2013-02-01 01:40:00,
2013-01-31 20:50:00,21.9,18.1,30.08,WNW,286,4.0,4.0,85,0.00,,,0.02,Wunderground v.1.15,2013-02-01 01:50:00,
2013-01-31 21:00:00,21.6,17.8,30.07,NW,324,3.0,5.0,85,0.00,,,0.02,Wunderground v.1.15,2013-02-01 02:00:00,
2013-01-31 21:10:00,20.8,16.5,30.08,NW,325,4.0,4.0,83,0.00,,,0.02,Wunderground v.1.15,2013-02-01 02:10:00,
2013-01-31 21:20:00,20.4,15.5,30.09,North,5,3.0,4.0,81,0.00,,,0.02,Wunderground v.1.15,2013-02-01 02:20:00,
2013-01-31 21:30:00,19.7,13.4,30.10,NNW,332,5.0,5.0,76,0.00,,,0.02,Wunderground v.1.15,2013-02-01 02:30:00,
2013-01-31 21:40:00,19.0,11.8,30.11,NW,323,5.0,5.0,73,0.00,,,0.02,Wunderground v.1.15,2013-02-01 02:40:00,
2013-01-31 21:50:00,18.3,11.4,30.11,NW,309,5.0,5.0,74,0.00,,,0.02,Wunderground v.1.15,2013-02-01 02:50:00,
2013-01-31 22:00:00,18.1,12.4,30.12,North,11,3.0,3.0,78,0.00,,,0.02,Wunderground v.1.15,2013-02-01 03:00:00,
2013-01-31 22:10:00,17.5,10.3,30.13,North,360,5.0,5.0,73,0.00,,,0.02,Wunderground v.1.15,2013-02-01 03:10:00,
2013-01-31 22:20:00,17.0,9.8,30.14,North,11,4.0,11.0,73,0.00,,,0.02,Wunderground v.1.15,2013-02-01 03:20:00,
2013-01-31 22:30:00,16.3,8.9,30.15,NNW,327,6.0,6.0,72,0.00,,,0.02,Wunderground v.1.15,2013-02-01 03:30:00,
2013-01-31 22:40:00,16.1,9.0,30.16,West,281,5.0,5.0,73,0.00,,,0.02,Wunderground v.1.15,2013-02-01 03:40:00,
2013-01-31 22:50:00,16.0,8.9,30.17,NW,317,4.0,4.0,73,0.00,,,0.02,Wunderground v.1.15,2013-02-01 03:50:00,
2013-01-31 23:00:00,15.5,8.1,30.17,NE,42,5.0,5.0,72,0.00,,,0.02,Wunderground v.1.15,2013-02-01 04:00:00,
2013-01-31 23:10:00,15.2,7.5,30.18,NNW,327,4.0,4.0,71,0.00,,,0.02,Wunderground v.1.15,2013-02-01 04:10:00,
2013-01-31 23:20:00,15.1,7.7,30.19,NNW,335,5.0,5.0,72,0.00,,,0.02,Wunderground v.1.15,2013-02-01 04:20:00,
2013-01-31 23:30:00,15.1,8.0,30.19,NNW,338,3.0,7.0,73,0.00,,,0.02,Wunderground v.1.15,2013-02-01 04:30:00,
2013-01-31 23:40:00,15.3,8.5,30.20,NW,319,3.0,6.0,74,0.00,,,0.02,Wunderground v.1.15,2013-02-01 04:40:00,
2013-01-31 23:50:00,14.7,8.8,30.21,NNW,347,5.0,7.0,77,0.00,,,0.02,Wunderground v.1.15,2013-02-01 04:50:00,